Location: Berg
(48.4333°N, 13.9167°E)
Time: 05:07:38
(UTC+00:00)

ARGOS - Pass Details

Date: 18 September 2020
Orbit: 821 x 834 km, 98.4° (Epoch: 29 October)

Event Time Altitude Azimuth Distance (km) Brightness Sun altitude
Rises 17:33:52 0° 143° (SE) 3,343 5.9 -4.8°
Reaches altitude 10° 17:36:18 10° 137° (SE) 2,416 5.1 -5.2°
Maximum altitude 17:41:19 43° 67° (ENE) 1,142 3.6 -6.0°
Drops below altitude 10° 17:46:23 10° 357° (N) 2,437 5.8 -6.8°
Sets 17:48:50 0° 351° (N) 3,377 6.6 -7.2°
